Flag for U.S.A. Weather past 2 weeks in Washington DC, District of Columbia, U.S.A.

Now
69 °F

Broken clouds.


Feels Like: 69 °F
Forecast: 59 / 73 °F
Wind: No wind

Location: Reagan National Airport

Current Time: Oct 2, 2014 at 11:26:01 AM

Latest Report: Oct 2, 2014 at 10:52 AM


Visibility: 10 mi

Pressure: 30.14 "Hg

Humidity: 70%

Dew point: 59 °F

Location of Washington DCLocation

Historic Weather in Washington DC — Graph

°F

Washington DC temperature yesterday

Maximum temperature yesterday: 76 °F (at 2:52 PM)
Minimum temperature yesterday: 66 °F (at 6:52 AM)
Average temperature yesterday: 70 °F

Past Weeks' High & Low Weather Summary

 TemperatureHumidityPressure
High85 °F (Sep 21, 2:52 PM)88% (Sep 25, 4:02 AM)30.46 "Hg (Sep 25, 4:02 AM)
Low54 °F (Sep 23, 6:52 AM)30% (Sep 23, 4:52 PM)29.65 "Hg (Sep 21, 5:52 PM)
Average69 °F64%30.12 "Hg
* Reported Sep 17 9:52 AM — Oct 2 9:52 AM, Washington DC, Weather by CustomWeather, © 2014

Note: Actual official high and low records may vary slightly from our data, if they occured in-between our weather recording intervals... More about our weather records

Advertising

Washington DC weather history for previous 24 hours

 ConditionsComfort  
Time TempWeatherWind HumidityBarometerVisibility
9:52 AM
Oct 2
67 °FMore clouds than sun.No wind76%30.15 "Hg10 mi
8:52 AM65 °FOvercast.3 mph81%30.15 "Hg7 mi
7:52 AM64 °FMostly cloudy.6 mph84%30.13 "Hg6 mi
6:52 AM64 °FOvercast.No wind84%30.12 "Hg6 mi
5:52 AM63 °FFog.5 mph87%30.11 "Hg6 mi
4:52 AM64 °FPassing clouds.5 mph84%30.09 "Hg8 mi
3:52 AM64 °FPassing clouds.No wind81%30.08 "Hg8 mi
2:52 AM64 °FPassing clouds.3 mph81%30.08 "Hg10 mi
1:52 AM65 °FPassing clouds.5 mph78%30.09 "Hg9 mi
12:52 AM66 °FPassing clouds.6 mph81%30.07 "Hg10 mi
11:52 PM
Oct 1
67 °FPassing clouds.No wind79%30.07 "Hg10 mi
10:52 PM68 °FPassing clouds.No wind78%30.07 "Hg10 mi
9:52 PM69 °FPassing clouds.No wind73%30.06 "Hg10 mi
8:52 PM70 °FPassing clouds.No wind71%30.05 "Hg10 mi
7:52 PM71 °FPassing clouds.5 mph68%30.03 "Hg10 mi
6:52 PM73 °FScattered clouds.6 mph64%30.02 "Hg10 mi
5:52 PM74 °FScattered clouds.6 mph60%30.01 "Hg10 mi
4:52 PM76 °FScattered clouds.3 mph54%30.01 "Hg10 mi
3:52 PM75 °FScattered clouds.6 mph58%30.01 "Hg10 mi
2:52 PM76 °FPartly sunny.6 mph58%30.02 "Hg10 mi
1:52 PM73 °FMostly cloudy.3 mph62%30.03 "Hg10 mi
12:52 PM73 °FMore clouds than sun.5 mph66%30.04 "Hg10 mi
11:52 AM70 °FOvercast.3 mph71%30.05 "Hg10 mi
Weather by CustomWeather, © 2014

See weather overviewHow to use our weather pages